Time,TemperatureF,DewpointF,PressureIn,WindDirection,WindDirectionDegrees,WindSpeedMPH,WindSpeedGustMPH,Humidity,HourlyPrecipIn,Conditions,Clouds,dailyrainin,SoftwareType,DateUTC
2014-09-19 00:03:00,55.3,48.9,30.14,NE,38,0.0,0.0,79,0.00,,,0.00,Wunderground v.1.15,2014-09-19 04:03:00,
2014-09-19 00:09:00,55.3,48.9,30.14,NE,38,0.0,0.0,79,0.00,,,0.00,Wunderground v.1.15,2014-09-19 04:09:00,
2014-09-19 00:15:00,55.3,48.9,30.14,NE,38,0.0,0.0,79,0.00,,,0.00,Wunderground v.1.15,2014-09-19 04:15:00,
2014-09-19 00:20:00,55.3,48.9,30.14,NE,38,0.0,0.0,79,0.00,,,0.00,Wunderground v.1.15,2014-09-19 04:20:00,
2014-09-19 00:26:00,55.3,48.9,30.14,NE,38,0.0,0.0,79,0.00,,,0.00,Wunderground v.1.15,2014-09-19 04:26:00,
2014-09-19 00:31:00,55.1,49.0,30.14,NE,38,0.0,0.0,80,0.00,,,0.00,Wunderground v.1.15,2014-09-19 04:31:00,
2014-09-19 00:37:00,55.0,48.9,30.14,NE,38,0.0,0.0,80,0.00,,,0.00,Wunderground v.1.15,2014-09-19 04:37:00,
2014-09-19 00:42:00,54.8,49.1,30.14,NE,38,0.0,0.0,81,0.00,,,0.00,Wunderground v.1.15,2014-09-19 04:42:00,
2014-09-19 00:48:00,54.7,49.0,30.14,NE,38,0.0,0.0,81,0.00,,,0.00,Wunderground v.1.15,2014-09-19 04:48:00,
2014-09-19 00:54:00,54.7,49.3,30.14,SE,124,0.0,3.0,82,0.00,,,0.00,Wunderground v.1.15,2014-09-19 04:54:00,
2014-09-19 00:59:00,54.7,49.3,30.14,ESE,123,0.0,3.0,82,0.00,,,0.00,Wunderground v.1.15,2014-09-19 04:59:00,
2014-09-19 01:05:00,54.8,49.4,30.14,ENE,57,0.0,0.0,82,0.00,,,0.00,Wunderground v.1.15,2014-09-19 05:05:00,
2014-09-19 01:10:00,54.8,49.4,30.14,ENE,57,0.0,0.0,82,0.00,,,0.00,Wunderground v.1.15,2014-09-19 05:10:00,
2014-09-19 01:16:00,54.8,49.4,30.14,ENE,57,0.0,0.0,82,0.00,,,0.00,Wunderground v.1.15,2014-09-19 05:16:00,
2014-09-19 01:21:00,54.7,49.6,30.14,ENE,57,0.0,0.0,83,0.00,,,0.00,Wunderground v.1.15,2014-09-19 05:21:00,
2014-09-19 01:27:00,54.5,49.4,30.15,ENE,57,0.0,0.0,83,0.00,,,0.00,Wunderground v.1.15,2014-09-19 05:27:00,
2014-09-19 01:33:00,54.4,49.3,30.15,ENE,57,0.0,0.0,83,0.00,,,0.00,Wunderground v.1.15,2014-09-19 05:33:00,
2014-09-19 01:38:00,54.2,49.5,30.15,ENE,57,0.0,0.0,84,0.00,,,0.00,Wunderground v.1.15,2014-09-19 05:38:00,
2014-09-19 01:44:00,54.2,49.5,30.15,ENE,57,0.0,0.0,84,0.00,,,0.00,Wunderground v.1.15,2014-09-19 05:44:00,
2014-09-19 01:49:00,54.1,49.4,30.15,ENE,57,0.0,0.0,84,0.00,,,0.00,Wunderground v.1.15,2014-09-19 05:49:00,
2014-09-19 01:55:00,53.9,49.2,30.15,ENE,57,0.0,0.0,84,0.00,,,0.00,Wunderground v.1.15,2014-09-19 05:55:00,
2014-09-19 02:01:00,53.6,49.2,30.15,ENE,57,0.0,0.0,85,0.00,,,0.00,Wunderground v.1.15,2014-09-19 06:01:00,
2014-09-19 02:03:00,53.6,49.2,30.15,ENE,57,0.0,0.0,85,0.00,,,0.00,Wunderground v.1.15,2014-09-19 06:03:00,
2014-09-19 02:08:00,53.3,48.9,30.15,ENE,57,0.0,0.0,85,0.00,,,0.00,Wunderground v.1.15,2014-09-19 06:08:00,
2014-09-19 02:13:00,53.2,48.8,30.15,ENE,57,0.0,0.0,85,0.00,,,0.00,Wunderground v.1.15,2014-09-19 06:13:00,
2014-09-19 02:18:00,53.1,49.0,30.15,ENE,57,0.0,0.0,86,0.00,,,0.00,Wunderground v.1.15,2014-09-19 06:18:00,
2014-09-19 02:23:00,53.1,49.3,30.15,ENE,57,0.0,0.0,87,0.00,,,0.00,Wunderground v.1.15,2014-09-19 06:23:00,
2014-09-19 02:28:00,53.1,49.6,30.15,ENE,58,0.0,1.0,88,0.00,,,0.00,Wunderground v.1.15,2014-09-19 06:28:00,
2014-09-19 02:33:00,52.9,49.4,30.15,ENE,58,0.0,0.0,88,0.00,,,0.00,Wunderground v.1.15,2014-09-19 06:33:00,
2014-09-19 02:38:00,52.9,49.4,30.16,ENE,63,0.0,3.0,88,0.00,,,0.00,Wunderground v.1.15,2014-09-19 06:38:00,
2014-09-19 02:43:00,52.8,49.3,30.16,ENE,63,0.0,0.0,88,0.00,,,0.00,Wunderground v.1.15,2014-09-19 06:43:00,
2014-09-19 02:48:00,52.8,49.3,30.16,ENE,63,0.0,0.0,88,0.00,,,0.00,Wunderground v.1.15,2014-09-19 06:48:00,
2014-09-19 02:53:00,52.6,49.1,30.15,ENE,63,0.0,0.0,88,0.00,,,0.00,Wunderground v.1.15,2014-09-19 06:53:00,
2014-09-19 02:58:00,52.6,49.4,30.15,ENE,63,0.0,0.0,89,0.00,,,0.00,Wunderground v.1.15,2014-09-19 06:58:00,
2014-09-19 03:03:00,52.5,49.4,30.15,ENE,63,0.0,0.0,89,0.00,,,0.00,Wunderground v.1.15,2014-09-19 07:03:00,
2014-09-19 03:09:00,52.6,49.4,30.15,ENE,63,0.0,1.0,89,0.00,,,0.00,Wunderground v.1.15,2014-09-19 07:09:00,
2014-09-19 03:14:00,52.5,49.4,30.15,ENE,63,0.0,0.0,89,0.00,,,0.00,Wunderground v.1.15,2014-09-19 07:14:00,
2014-09-19 03:19:00,52.3,49.2,30.15,ENE,63,0.0,0.0,89,0.00,,,0.00,Wunderground v.1.15,2014-09-19 07:19:00,
2014-09-19 03:24:00,52.2,49.1,30.15,ENE,65,0.0,0.0,89,0.00,,,0.00,Wunderground v.1.15,2014-09-19 07:24:00,
2014-09-19 03:29:00,52.2,49.1,30.15,ENE,65,0.0,0.0,89,0.00,,,0.00,Wunderground v.1.15,2014-09-19 07:29:00,
2014-09-19 03:34:00,52.0,49.2,30.15,ENE,65,0.0,0.0,90,0.00,,,0.00,Wunderground v.1.15,2014-09-19 07:34:00,
2014-09-19 03:39:00,51.9,49.1,30.15,ENE,65,0.0,0.0,90,0.00,,,0.00,Wunderground v.1.15,2014-09-19 07:39:00,
2014-09-19 03:44:00,51.7,48.9,30.15,ENE,65,0.0,0.0,90,0.00,,,0.00,Wunderground v.1.15,2014-09-19 07:44:00,
2014-09-19 03:49:00,51.7,48.9,30.15,ENE,65,0.0,0.0,90,0.00,,,0.00,Wunderground v.1.15,2014-09-19 07:49:00,
2014-09-19 03:54:00,51.6,48.8,30.15,ENE,65,0.0,0.0,90,0.00,,,0.00,Wunderground v.1.15,2014-09-19 07:54:00,
2014-09-19 03:59:00,51.6,49.1,30.15,ENE,65,0.0,0.0,91,0.00,,,0.00,Wunderground v.1.15,2014-09-19 07:59:00,
2014-09-19 04:04:00,51.6,49.1,30.15,ENE,65,0.0,0.0,91,0.00,,,0.00,Wunderground v.1.15,2014-09-19 08:04:00,
2014-09-19 04:09:00,51.4,48.9,30.15,ENE,65,0.0,0.0,91,0.00,,,0.00,Wunderground v.1.15,2014-09-19 08:09:00,
2014-09-19 04:14:00,51.3,48.8,30.15,ENE,65,0.0,0.0,91,0.00,,,0.00,Wunderground v.1.15,2014-09-19 08:14:00,
2014-09-19 04:19:00,51.1,48.6,30.15,ENE,65,0.0,0.0,91,0.00,,,0.00,Wunderground v.1.15,2014-09-19 08:19:00,
2014-09-19 04:24:00,51.0,48.5,30.15,ENE,65,0.0,0.0,91,0.00,,,0.00,Wunderground v.1.15,2014-09-19 08:24:00,
2014-09-19 04:29:00,50.8,48.3,30.15,ENE,65,0.0,0.0,91,0.00,,,0.00,Wunderground v.1.15,2014-09-19 08:29:00,
2014-09-19 04:34:00,50.7,48.5,30.15,ENE,65,0.0,0.0,92,0.00,,,0.00,Wunderground v.1.15,2014-09-19 08:34:00,
2014-09-19 04:39:00,50.5,48.3,30.16,ENE,65,0.0,0.0,92,0.00,,,0.00,Wunderground v.1.15,2014-09-19 08:39:00,
2014-09-19 04:44:00,50.5,48.3,30.16,ENE,67,0.0,1.0,92,0.00,,,0.00,Wunderground v.1.15,2014-09-19 08:44:00,
2014-09-19 04:49:00,50.5,48.3,30.16,ENE,67,0.0,1.0,92,0.00,,,0.00,Wunderground v.1.15,2014-09-19 08:49:00,
2014-09-19 04:54:00,50.4,48.5,30.15,ENE,67,0.0,0.0,93,0.00,,,0.00,Wunderground v.1.15,2014-09-19 08:54:00,
2014-09-19 04:59:00,50.4,48.5,30.15,ENE,67,0.0,0.0,93,0.00,,,0.00,Wunderground v.1.15,2014-09-19 08:59:00,
2014-09-19 05:04:00,50.4,48.5,30.15,ENE,67,0.0,0.0,93,0.00,,,0.00,Wunderground v.1.15,2014-09-19 09:04:00,
2014-09-19 05:09:00,50.2,48.3,30.15,ENE,67,0.0,0.0,93,0.00,,,0.00,Wunderground v.1.15,2014-09-19 09:09:00,
2014-09-19 05:14:00,50.2,48.5,30.15,ENE,67,0.0,0.0,94,0.00,,,0.00,Wunderground v.1.15,2014-09-19 09:14:00,
2014-09-19 05:19:00,50.1,48.4,30.15,ENE,73,0.0,1.0,94,0.00,,,0.00,Wunderground v.1.15,2014-09-19 09:19:00,
2014-09-19 05:24:00,50.2,48.5,30.15,ENE,75,0.0,1.0,94,0.00,,,0.00,Wunderground v.1.15,2014-09-19 09:24:00,
2014-09-19 05:29:00,50.1,48.4,30.15,ENE,75,0.0,1.0,94,0.00,,,0.00,Wunderground v.1.15,2014-09-19 09:29:00,
2014-09-19 05:34:00,50.1,48.4,30.15,ENE,75,0.0,0.0,94,0.00,,,0.00,Wunderground v.1.15,2014-09-19 09:34:00,
2014-09-19 05:39:00,49.9,48.5,30.15,ENE,75,0.0,0.0,95,0.00,,,0.00,Wunderground v.1.15,2014-09-19 09:39:00,
2014-09-19 05:44:00,49.9,48.5,30.15,ENE,75,0.0,0.0,95,0.00,,,0.00,Wunderground v.1.15,2014-09-19 09:44:00,
2014-09-19 05:49:00,49.9,48.5,30.15,ENE,75,0.0,0.0,95,0.00,,,0.00,Wunderground v.1.15,2014-09-19 09:49:00,
2014-09-19 05:54:00,49.8,48.4,30.15,ENE,75,0.0,0.0,95,0.00,,,0.00,Wunderground v.1.15,2014-09-19 09:54:00,
2014-09-19 05:59:00,49.6,48.2,30.15,ENE,75,0.0,1.0,95,0.00,,,0.00,Wunderground v.1.15,2014-09-19 09:59:00,
2014-09-19 06:04:00,49.6,48.2,30.15,ENE,75,0.0,0.0,95,0.00,,,0.00,Wunderground v.1.15,2014-09-19 10:04:00,
2014-09-19 06:09:00,49.5,48.1,30.15,ENE,75,0.0,0.0,95,0.00,,,0.00,Wunderground v.1.15,2014-09-19 10:09:00,
2014-09-19 06:14:00,49.4,48.0,30.15,ENE,75,0.0,0.0,95,0.00,,,0.00,Wunderground v.1.15,2014-09-19 10:14:00,
2014-09-19 06:19:00,49.2,47.8,30.15,East,88,0.0,2.0,95,0.00,,,0.00,Wunderground v.1.15,2014-09-19 10:19:00,
2014-09-19 06:24:00,49.2,47.8,30.15,East,88,0.0,0.0,95,0.00,,,0.00,Wunderground v.1.15,2014-09-19 10:24:00,
2014-09-19 06:29:00,49.1,47.7,30.15,East,88,0.0,0.0,95,0.00,,,0.00,Wunderground v.1.15,2014-09-19 10:29:00,
2014-09-19 06:34:00,49.1,47.7,30.15,East,88,0.0,0.0,95,0.00,,,0.00,Wunderground v.1.15,2014-09-19 10:34:00,
2014-09-19 06:39:00,48.8,47.4,30.15,East,88,0.0,0.0,95,0.00,,,0.00,Wunderground v.1.15,2014-09-19 10:39:00,
2014-09-19 06:44:00,48.8,47.7,30.15,East,88,0.0,0.0,96,0.00,,,0.00,Wunderground v.1.15,2014-09-19 10:44:00,
2014-09-19 06:49:00,48.8,47.7,30.15,East,88,0.0,0.0,96,0.00,,,0.00,Wunderground v.1.15,2014-09-19 10:49:00,
2014-09-19 06:54:00,48.8,47.7,30.16,East,88,0.0,0.0,96,0.00,,,0.00,Wunderground v.1.15,2014-09-19 10:54:00,
2014-09-19 06:59:00,48.8,47.7,30.16,East,88,0.0,0.0,96,0.00,,,0.00,Wunderground v.1.15,2014-09-19 10:59:00,
2014-09-19 07:04:00,48.6,47.5,30.16,East,88,0.0,0.0,96,0.00,,,0.00,Wunderground v.1.15,2014-09-19 11:04:00,
2014-09-19 07:09:00,48.6,47.5,30.16,East,88,0.0,1.0,96,0.00,,,0.00,Wunderground v.1.15,2014-09-19 11:09:00,
2014-09-19 07:14:00,48.6,47.5,30.16,East,88,0.0,0.0,96,0.00,,,0.00,Wunderground v.1.15,2014-09-19 11:14:00,
2014-09-19 07:19:00,48.5,47.4,30.16,East,88,0.0,0.0,96,0.00,,,0.00,Wunderground v.1.15,2014-09-19 11:19:00,
2014-09-19 07:24:00,48.6,47.5,30.17,East,88,0.0,0.0,96,0.00,,,0.00,Wunderground v.1.15,2014-09-19 11:24:00,
2014-09-19 07:29:00,48.6,47.5,30.17,East,88,0.0,0.0,96,0.00,,,0.00,Wunderground v.1.15,2014-09-19 11:29:00,
2014-09-19 07:34:00,48.6,47.5,30.17,East,88,0.0,0.0,96,0.00,,,0.00,Wunderground v.1.15,2014-09-19 11:34:00,
2014-09-19 07:39:00,48.6,47.5,30.17,East,88,0.0,0.0,96,0.00,,,0.00,Wunderground v.1.15,2014-09-19 11:39:00,
2014-09-19 07:44:00,48.6,47.8,30.17,East,88,0.0,0.0,97,0.00,,,0.00,Wunderground v.1.15,2014-09-19 11:44:00,
2014-09-19 07:49:00,48.8,48.0,30.17,East,87,0.0,1.0,97,0.00,,,0.00,Wunderground v.1.15,2014-09-19 11:49:00,
2014-09-19 07:54:00,48.8,48.0,30.17,East,87,0.0,0.0,97,0.00,,,0.00,Wunderground v.1.15,2014-09-19 11:54:00,
2014-09-19 07:59:00,48.8,48.0,30.17,East,87,2.0,2.0,97,0.00,,,0.00,Wunderground v.1.15,2014-09-19 11:59:00,
2014-09-19 08:04:00,48.9,48.1,30.17,East,87,0.0,1.0,97,0.00,,,0.00,Wunderground v.1.15,2014-09-19 12:04:00,
2014-09-19 08:09:00,49.1,48.3,30.17,East,87,0.0,1.0,97,0.00,,,0.00,Wunderground v.1.15,2014-09-19 12:09:00,
2014-09-19 08:14:00,49.2,48.4,30.17,East,87,0.0,0.0,97,0.00,,,0.00,Wunderground v.1.15,2014-09-19 12:14:00,
2014-09-19 08:19:00,49.5,48.7,30.17,ENE,73,0.0,5.0,97,0.00,,,0.00,Wunderground v.1.15,2014-09-19 12:19:00,
2014-09-19 08:25:00,49.9,49.1,30.18,ENE,67,0.0,4.0,97,0.00,,,0.00,Wunderground v.1.15,2014-09-19 12:25:00,
2014-09-19 08:30:00,50.2,49.4,30.18,ENE,64,0.0,4.0,97,0.00,,,0.00,Wunderground v.1.15,2014-09-19 12:30:00,
2014-09-19 08:35:00,50.5,49.7,30.18,East,101,0.0,5.0,97,0.00,,,0.00,Wunderground v.1.15,2014-09-19 12:35:00,
2014-09-19 08:40:00,50.8,50.0,30.18,SE,136,0.0,5.0,97,0.00,,,0.00,Wunderground v.1.15,2014-09-19 12:40:00,
2014-09-19 08:45:00,51.0,50.2,30.18,NE,45,0.0,2.0,97,0.00,,,0.00,Wunderground v.1.15,2014-09-19 12:45:00,
2014-09-19 08:50:00,51.3,50.5,30.18,NE,48,1.0,3.0,97,0.00,,,0.00,Wunderground v.1.15,2014-09-19 12:50:00,
2014-09-19 08:55:00,51.7,50.6,30.19,NE,47,3.0,4.0,96,0.00,,,0.00,Wunderground v.1.15,2014-09-19 12:55:00,
2014-09-19 09:00:00,52.0,50.9,30.19,ESE,105,0.0,5.0,96,0.00,,,0.00,Wunderground v.1.15,2014-09-19 13:00:00,
2014-09-19 09:05:00,52.5,51.4,30.19,NE,56,0.0,2.0,96,0.00,,,0.00,Wunderground v.1.15,2014-09-19 13:05:00,
2014-09-19 09:10:00,53.1,51.7,30.19,NE,55,0.0,5.0,95,0.00,,,0.00,Wunderground v.1.15,2014-09-19 13:10:00,
2014-09-19 09:15:00,53.8,51.8,30.19,NNE,21,1.0,6.0,93,0.00,,,0.00,Wunderground v.1.15,2014-09-19 13:15:00,
2014-09-19 09:20:00,54.5,51.6,30.19,NNE,18,4.0,6.0,90,0.00,,,0.00,Wunderground v.1.15,2014-09-19 13:20:00,
2014-09-19 09:25:00,55.1,51.6,30.19,WSW,246,0.0,4.0,88,0.00,,,0.00,Wunderground v.1.15,2014-09-19 13:25:00,
2014-09-19 09:30:00,55.7,51.3,30.19,East,94,0.0,6.0,85,0.00,,,0.00,Wunderground v.1.15,2014-09-19 13:30:00,
2014-09-19 09:35:00,56.2,51.1,30.19,ESE,106,0.0,4.0,83,0.00,,,0.00,Wunderground v.1.15,2014-09-19 13:35:00,
2014-09-19 09:40:00,56.7,50.9,30.20,NW,320,0.0,0.0,81,0.00,,,0.00,Wunderground v.1.15,2014-09-19 13:40:00,
2014-09-19 09:45:00,57.2,51.1,30.20,NNW,346,1.0,2.0,80,0.00,,,0.00,Wunderground v.1.15,2014-09-19 13:45:00,
2014-09-19 09:50:00,57.5,51.0,30.20,NE,53,0.0,0.0,79,0.00,,,0.00,Wunderground v.1.15,2014-09-19 13:50:00,